Paso Robles, CA

5:04 AM PST on December 15, 2019 (GMT -0800)
Paso Robles Municipal

Weather History for KPRB - October, 2019

Change the Weather History Date:

Wednesday, October 23, 2019

  Actual Average Record
Temperature  
Mean Temperature 67 °F 60 °F  
Max Temperature 89 °F 77 °F 97 °F (1959)
Min Temperature 45 °F 43 °F 29 °F (1961)
Degree Days  
Heating Degree Days 0 6  
Month to date heating degree days 85 83  
Since 1 July heating degree days 111 115  
Cooling Degree Days 2 0  
Month to date cooling degree days 18 34  
Year to date cooling degree days 1053 925  
Growing Degree Days 17 (Base 50)    
Moisture  
Dew Point 42 °F    
Average Humidity 47    
Maximum Humidity 77    
Minimum Humidity 19    
Precipitation  
Precipitation 0.00 in 0.03 in 0.33 in (1989)
Month to date precipitation 0.00 0.38  
Year to date precipitation 11.28 9.50  
Sea Level Pressure  
Sea Level Pressure 29.96 in    
Wind  
Wind Speed 3 mph ()    
Max Wind Speed 15 mph    
Max Gust Speed 18 mph    
Visibility 10.0 miles    
Events      
T = Trace of Precipitation, MM = Missing Value Source: Averaged Metar Reports

Daily Weather History Graph

Daily Weather History Graph

Search for Another Location

Airport or City:

Astronomy

Oct. 23, 2019 Rise Set
Actual Time 7:15 AM PDT 6:17 PM PDT
Civil Twilight 6:49 AM PDT 6:43 PM PDT
Nautical Twilight 6:20 AM PDT 7:12 PM PDT
Astronomical Twilight 5:50 AM PDT 7:42 PM PDT
Moon 1:55 AM PDT (10/23) 3:57 PM PDT (10/23)
Length of Visible Light 11h 53m
Length of Day
11h 01m
Waning Crescent, 25% of the Moon is Illuminated
Oct 23
Waning Crescent
Oct 27
New
Nov 4
First Quarter
Nov 12
Full
Nov 19
Last Quarter

Hourly Weather History & Observations

Time (PDT) Temp. Dew Point Humidity Pressure Visibility Wind Dir Wind Speed Gust Speed Precip Events Conditions
12:53 AM 55.9 °F 43.0 °F 62% 30.05 in 10.0 mi Calm Calm - N/A   Clear
1:53 AM 51.1 °F 39.9 °F 66% 30.04 in 10.0 mi East 4.6 mph - N/A   Clear
2:53 AM 50.0 °F 39.9 °F 68% 30.03 in 10.0 mi SE 4.6 mph - N/A   Clear
3:53 AM 48.9 °F 41.0 °F 74% 30.01 in 10.0 mi ENE 3.5 mph - N/A   Clear
4:53 AM 46.9 °F 39.0 °F 74% 30.01 in 10.0 mi NE 5.8 mph - N/A   Clear
5:53 AM 46.9 °F 39.0 °F 74% 30.02 in 10.0 mi NNW 3.5 mph - N/A   Clear
6:53 AM 45.0 °F 37.9 °F 76% 30.01 in 10.0 mi Calm Calm - N/A   Clear
7:53 AM 46.0 °F 37.9 °F 73% 30.02 in 10.0 mi Calm Calm - N/A   Clear
8:53 AM 55.9 °F 42.1 °F 60% 30.02 in 10.0 mi Calm Calm - N/A   Clear
9:53 AM 64.0 °F 43.0 °F 46% 30.01 in 10.0 mi Calm Calm - N/A   Clear
10:53 AM 72.0 °F 44.1 °F 37% 30.00 in 10.0 mi NNW 5.8 mph - N/A   Clear
11:53 AM 78.1 °F 43.0 °F 29% 29.97 in 10.0 mi WNW 3.5 mph - N/A   Clear
12:53 PM 84.9 °F 43.0 °F 23% 29.94 in 10.0 mi Calm Calm - N/A   Clear
1:53 PM 87.1 °F 42.1 °F 21% 29.91 in 10.0 mi NE 5.8 mph - N/A   Clear
2:53 PM 89.1 °F 42.1 °F 19% 29.90 in 10.0 mi ENE 9.2 mph - N/A   Clear
3:53 PM 88.0 °F 43.0 °F 21% 29.88 in 10.0 mi SE 9.2 mph - N/A   Clear
4:53 PM 87.1 °F 42.1 °F 21% 29.86 in 10.0 mi East 8.1 mph - N/A   Clear
5:53 PM 82.9 °F 42.1 °F 24% 29.86 in 10.0 mi ESE 9.2 mph - N/A   Clear
6:53 PM 77.0 °F 43.0 °F 30% 29.87 in 10.0 mi East 12.7 mph - N/A   Clear
7:53 PM 73.0 °F 45.0 °F 37% 29.89 in 10.0 mi ESE 10.4 mph - N/A   Clear
8:53 PM 69.1 °F 45.0 °F 42% 29.90 in 10.0 mi ENE 5.8 mph - N/A   Clear
9:53 PM 66.9 °F 46.9 °F 49% 29.92 in 10.0 mi ENE 3.5 mph - N/A   Clear
10:53 PM 63.0 °F 46.0 °F 54% 29.93 in 10.0 mi Calm Calm - N/A   Clear
11:53 PM 57.0 °F 42.1 °F 57% 29.94 in 10.0 mi North 3.5 mph - N/A   Clear